Regional Weather Roundup
Issued by NWS

Home | Current Version | Previous Version | Graphics & Text | Print | Product List | Glossary On
Versions: 1 2 3 4 5 6 7 8 9 10 11 12 13 14 15 16 17 18 19 20 21 22 23 24 25 26 27 28 29 30 31 32 33 34 35 36 37 38 39 40 41 42 43 44 45 46 47 48 49 50
060
ASUS43 KBIS 260502
RWRND

NORTH DAKOTA REGIONAL WEATHER ROUNDUP
NATIONAL WEATHER SERVICE BISMARCK ND
1200 AM CDT FRI AUG 26 2016

NOTE: "FAIR" INDICATES FEW OR NO CLOUDS BELOW 12,000 FEET WITH NO
SIGNIFICANT WEATHER AND/OR OBSTRUCTIONS TO VISIBILITY.


NDZ001>003-009>011-017-260600-
NORTHWEST NORTH DAKOTA

CITY           SKY/WX    TMP DP  RH WIND       PRES   REMARKS
WILLISTON      CLOUDY    60  39  45 SW6       30.09S
MINOT          MOCLDY    59  42  53 S7        30.07R
MINOT AFB      MOCLDY    55  40  56 S9        30.06R
$$

NDZ018>021-031>035-040>046-260600-
SOUTHWEST NORTH DAKOTA

CITY           SKY/WX    TMP DP  RH WIND       PRES   REMARKS
BISMARCK       FAIR      56  46  69 SW3       30.13S
DICKINSON      FAIR      52  40  63 SW3       30.13S
GARRISON         N/A     48  45  89 CALM      30.09S
HETTINGER ARPT FAIR      49  40  71 SE5       30.17F
$$

NDZ004>008-012>016-024-026-027-054-260600-
NORTHEAST NORTH DAKOTA

CITY           SKY/WX    TMP DP  RH WIND       PRES   REMARKS
GRAND FORKS    FAIR      51  48  89 CALM      30.05R
GRND FRKS AFB  FAIR      52  49  90 SW6       30.06R
DEVILS LAKE    FAIR      53  50  89 CALM      30.08R
$$

NDZ022-023-025-028>030-036>039-047>053-260600-
SOUTHEAST NORTH DAKOTA

CITY           SKY/WX    TMP DP  RH WIND       PRES   REMARKS
FARGO          FAIR      56  50  80 SW7       30.09R
JAMESTOWN      FAIR      56  49  77 SW8       30.11R
$$





USA.gov is the U.S. government's official web portal to all federal, state and local government web resources and services.